Albany, NY
on Sunday, December 10, 2017

Sunday
       
Previous Day Next Day
Daily Summary
 ActualAverageRecord
Temperature
Mean Temperature °F °C 30°F -1°C  
Max Temperature 36°F 2°C 38°F 3°C 64°F 17°C (1966)
Min Temperature 18°F -8°C 23°F -5°C -4°F -20°C (1902)
Degree Days
Heating Degree Days 38 34  
Month to date heating degree days 305 327  
Since 1 July heating degree days 1419 1731  
Cooling Degree Days 0 0  
Month to date cooling degree days 0 0  
Year to date cooling degree days 714 598  
Moisture
Dew Point 21°F -6°C   
Average Humidity 72    
Maximum Humidity 92    
Minimum Humidity 52    
Precipitation
Precipitation T in / T cm 0.10 in / 2.54 cm 2.28 in / 5.79 cm (1878)
Month to date precipitation 0.63 1.05  
Year to date precipitation 38.86 37.47  
Snow
Snow T in / T cm 0.40 in / 1.02 cm 6.10 in / 15.49 cm (2014)
Month to date snowfall 3.4 3.5  
Since 1 July snowfall 3.4 6.6  
Snow Depth 3.00 in / 7.62 cm   
Wind
Wind Speed 6 mph / 9 km/h   
Max Wind Speed 22 mph / 35 km/h   
Max Gust Speed 27 mph / 43 km/h   
Visibility 9 miles / 14 kilometers   
Events Fog , Snow   

Key: T is trace of precipitation, MM is missing value
Source: NWS Daily Summary
Time(EST)TemperatureDew PointHumidity Pressure Visibility Wind DirectionWind SpeedGust SpeedPrecipitationEvents Conditions
12:17 AM 27.0°F -2.8°C 23.0°F -5.0°C 85% 29.72 in / 1006.3 hPa 5.0 miles / 8.0 kilometers NW 3.5 mph / 5.6 km/h - 0.00 in / 0.0 cm Snow Light Snow
12:51 AM 25.0°F -3.9°C 23.0°F -5.0°C 92% 29.73 in / 1006.5 hPa 6.0 miles / 9.7 kilometers NW 3.5 mph / 5.6 km/h - 0.00 in / 0.0 cm Snow Light Snow
1:51 AM 24.1°F -4.4°C 21.0°F -6.1°C 88% 29.73 in / 1006.6 hPa 5.0 miles / 8.0 kilometers Calm Calm - 0.00 in / 0.0 cm   Scattered Clouds
2:08 AM 21.0°F -6.1°C 19.0°F -7.2°C 92% 29.72 in / 1006.3 hPa 1.8 miles / 2.8 kilometers Calm Calm - N/A Fog Patches of Fog
2:32 AM 21.9°F -5.6°C 19.9°F -6.7°C 92% 29.72 in / 1006.3 hPa 3.0 miles / 4.8 kilometers Calm Calm - N/A   Mostly Cloudy
2:51 AM 21.0°F -6.1°C 19.0°F -7.2°C 92% 29.73 in / 1006.8 hPa 6.0 miles / 9.7 kilometers Calm Calm - N/A   Clear
3:51 AM 19.9°F -6.7°C 18.0°F -7.8°C 92% 29.73 in / 1006.6 hPa 8.0 miles / 12.9 kilometers Calm Calm - N/A   Mostly Cloudy
4:51 AM 19.9°F -6.7°C 17.1°F -8.3°C 89% 29.75 in / 1007.2 hPa 10.0 miles / 16.1 kilometers SW 4.6 mph / 7.4 km/h - N/A   Mostly Cloudy
5:51 AM 25.0°F -3.9°C 19.0°F -7.2°C 78% 29.76 in / 1007.7 hPa 10.0 miles / 16.1 kilometers Calm Calm - N/A   Mostly Cloudy
6:51 AM 21.9°F -5.6°C 18.0°F -7.8°C 85% 29.78 in / 1008.5 hPa 10.0 miles / 16.1 kilometers SSW 4.6 mph / 7.4 km/h - N/A   Scattered Clouds
7:51 AM 24.1°F -4.4°C 19.0°F -7.2°C 81% 29.80 in / 1009.1 hPa 10.0 miles / 16.1 kilometers SW 5.8 mph / 9.3 km/h - N/A   Overcast
8:51 AM 27.0°F -2.8°C 21.0°F -6.1°C 78% 29.81 in / 1009.5 hPa 10.0 miles / 16.1 kilometers SSW 5.8 mph / 9.3 km/h - 0.00 in / 0.0 cm   Mostly Cloudy
9:51 AM 28.9°F -1.7°C 21.9°F -5.6°C 75% 29.83 in / 1010.0 hPa 10.0 miles / 16.1 kilometers SSE 5.8 mph / 9.3 km/h - N/A   Partly Cloudy
10:51 AM 30.0°F -1.1°C 24.1°F -4.4°C 79% 29.83 in / 1010.2 hPa 10.0 miles / 16.1 kilometers SSW 6.9 mph / 11.1 km/h - N/A   Mostly Cloudy
11:18 AM 34.0°F 1.1°C 24.1°F -4.4°C 67% 29.83 in / 1010.0 hPa 10.0 miles / 16.1 kilometers West 12.7 mph / 20.4 km/h - N/A   Mostly Cloudy
11:51 AM 35.1°F 1.7°C 21.9°F -5.6°C 59% 29.83 in / 1010.0 hPa 10.0 miles / 16.1 kilometers WNW 11.5 mph / 18.5 km/h - N/A   Mostly Cloudy
12:51 PM 35.1°F 1.7°C 21.0°F -6.1°C 57% 29.83 in / 1010.0 hPa 10.0 miles / 16.1 kilometers West 12.7 mph / 20.4 km/h 21.9 mph / 35.2 km/h N/A   Mostly Cloudy
1:51 PM 36.0°F 2.2°C 19.9°F -6.7°C 52% 29.84 in / 1010.3 hPa 10.0 miles / 16.1 kilometers WSW 8.1 mph / 13.0 km/h - 0.00 in / 0.0 cm   Mostly Cloudy
2:51 PM 35.1°F 1.7°C 21.0°F -6.1°C 57% 29.86 in / 1011.1 hPa 10.0 miles / 16.1 kilometers West 6.9 mph / 11.1 km/h - 0.00 in / 0.0 cm   Mostly Cloudy
3:51 PM 34.0°F 1.1°C 21.0°F -6.1°C 59% 29.88 in / 1011.8 hPa 10.0 miles / 16.1 kilometers West 6.9 mph / 11.1 km/h - 0.00 in / 0.0 cm   Mostly Cloudy
4:51 PM 33.1°F 0.6°C 19.0°F -7.2°C 56% 29.90 in / 1012.4 hPa 10.0 miles / 16.1 kilometers West 5.8 mph / 9.3 km/h - N/A   Mostly Cloudy
5:51 PM 30.9°F -0.6°C 19.9°F -6.7°C 64% 29.90 in / 1012.5 hPa 10.0 miles / 16.1 kilometers SW 4.6 mph / 7.4 km/h - N/A   Mostly Cloudy
6:51 PM 30.9°F -0.6°C 21.0°F -6.1°C 67% 29.91 in / 1012.9 hPa 10.0 miles / 16.1 kilometers South 3.5 mph / 5.6 km/h - N/A   Overcast
7:51 PM 32.0°F 0.0°C 21.0°F -6.1°C 64% 29.91 in / 1012.8 hPa 10.0 miles / 16.1 kilometers South 10.4 mph / 16.7 km/h - N/A   Overcast
8:51 PM 32.0°F 0.0°C 19.9°F -6.7°C 61% 29.91 in / 1012.8 hPa 10.0 miles / 16.1 kilometers South 5.8 mph / 9.3 km/h - N/A   Overcast
9:51 PM 30.9°F -0.6°C 21.0°F -6.1°C 67% 29.92 in / 1013.0 hPa 10.0 miles / 16.1 kilometers South 6.9 mph / 11.1 km/h - N/A   Overcast
10:51 PM 30.9°F -0.6°C 21.0°F -6.1°C 67% 29.92 in / 1013.1 hPa 10.0 miles / 16.1 kilometers South 8.1 mph / 13.0 km/h - N/A   Overcast
11:51 PM 32.0°F 0.0°C 21.0°F -6.1°C 64% 29.94 in / 1013.6 hPa 10.0 miles / 16.1 kilometers SSW 8.1 mph / 13.0 km/h - N/A   Overcast